Theta_e
361 363 364 363 351 347 351 352 347 356 355 351 347 347 347 346 347 345 342 344 345 343 346 346 346 346 342 337 329 330 335 338 338 337 334 335 335 336 336 337 340 338 340 340 336 336 336 336 336
363 364 363 360 351 348 350 350 354 356 353 352 352 349 350 349 343 343 344 345 344 343 343 343 345 342 337 335 327 327 330 334 335 336 337 338 337 338 337 338 341 331 335 332 333 331 332 334 332
361 364 361 358 354 351 351 351 355 352 352 353 353 354 353 345 343 344 343 343 341 341 343 339 343 335 332 330 325 326 328 332 332 332 332 334 337 337 336 338 338 334 325 335 334 333 335 333 339
360 360 361 352 349 347 349 351 353 354 353 352 352 352 348 345 346 344 349 348 347 338 340 330 331 328 327 325 325 328 331 335 334 332 332 332 336 336 332 339 337 332 328 326 337 335 332 331 336
359 361 345 345 348 347 347 353 354 355 353 353 352 354 352 349 348 349 349 347 345 337 329 325 326 326 329 330 334 335 333 335 334 335 339 337 336 334 335 338 338 331 328 325 327 336 326 329 330
356 352 341 344 347 348 347 354 352 354 354 353 353 352 352 351 350 351 350 349 346 333 328 327 337 339 341 341 339 334 335 334 334 337 336 327 327 332 337 339 337 338 335 330 326 326 323 323 331
352 341 342 343 349 350 347 353 353 354 353 353 351 351 352 351 348 349 350 348 347 340 334 336 340 341 340 340 340 334 331 330 334 339 332 330 326 328 332 332 333 333 333 334 333 326 329 331 330
347 338 344 346 351 350 346 351 354 354 353 353 347 351 351 349 350 352 351 349 349 342 332 336 339 340 341 339 335 334 338 339 339 335 333 332 330 330 333 332 330 329 329 332 332 332 330 330 330
342 342 346 347 349 350 349 353 354 353 353 353 353 349 349 349 349 351 351 350 348 340 339 338 338 337 337 336 334 334 335 333 335 335 337 336 332 332 334 335 330 328 330 332 330 330 330 330 331
340 340 344 341 343 349 349 353 353 353 352 352 351 350 350 350 348 346 350 350 348 346 343 340 338 334 334 333 334 333 332 333 337 335 335 337 336 335 335 335 335 332 332 332 330 330 331 331 330
342 342 341 339 343 347 348 353 354 353 352 351 353 353 351 349 348 347 345 346 346 346 345 341 332 331 340 334 336 335 336 335 337 337 335 336 337 335 335 335 335 335 333 332 333 333 335 338 339
341 342 341 339 344 346 347 352 354 355 354 352 352 352 351 351 349 346 342 342 347 345 347 345 343 344 346 344 342 341 343 338 337 337 336 336 338 336 334 336 335 336 335 334 333 333 333 338 343
339 343 342 341 345 346 348 352 355 354 354 352 352 352 351 350 349 349 346 347 347 346 347 347 345 345 345 345 341 341 340 342 340 340 339 338 340 339 336 339 337 335 335 335 336 335 335 334 336
340 342 344 342 345 347 351 353 353 353 352 351 352 351 352 351 350 348 348 347 347 346 347 346 346 345 346 346 341 341 341 342 343 343 343 339 341 342 342 342 342 341 340 340 341 341 339 339 340
340 339 342 344 347 347 348 351 355 353 350 351 351 352 352 350 350 348 346 348 346 346 346 347 346 346 346 347 346 342 343 343 342 343 342 342 342 342 342 342 343 342 342 342 342 342 342 342 342
335 338 342 344 347 347 344 352 352 351 351 351 351 350 352 350 349 349 348 347 346 347 347 347 348 348 347 347 346 343 343 344 345 343 343 343 344 343 343 342 342 343 344 343 343 342 342 342 342
334 336 340 346 344 346 343 348 350 350 350 349 350 349 349 350 349 349 348 348 347 347 346 347 347 347 346 348 347 346 347 347 347 347 346 345 345 345 345 344 344 343 343 344 343 344 343 343 343
338 336 337 344 343 342 343 346 349 349 349 349 347 347 347 350 350 349 349 349 349 347 348 347 347 348 348 349 350 350 350 350 349 348 349 348 348 348 347 347 347 347 345 344 343 343 344 344 342
335 337 339 339 342 342 342 345 349 348 348 348 346 345 348 346 346 348 348 348 348 347 348 348 348 348 348 349 350 350 351 350 350 351 351 351 347 348 349 348 347 346 345 345 344 345 345 345 342
336 339 339 338 342 340 343 344 347 347 347 347 346 346 346 346 347 348 348 348 348 349 349 349 350 350 350 350 351 352 353 354 353 353 353 351 348 349 349 348 348 347 347 346 347 345 344 344 343
334 337 339 336 341 339 343 347 348 346 346 347 346 347 348 348 348 348 349 349 349 351 352 352 351 352 353 354 354 353 355 356 355 354 354 352 352 352 353 350 348 350 347 346 347 347 346 344 343
336 334 337 338 331 332 337 342 347 344 343 345 347 349 349 346 340 348 349 350 350 351 351 353 353 354 354 355 356 357 358 359 359 358 356 355 355 353 352 352 350 350 351 349 348 346 347 346 343
335 334 336 338 331 329 330 344 344 339 342 346 351 350 345 340 338 349 340 350 351 352 352 354 355 356 355 352 358 360 360 360 357 358 356 354 354 354 352 352 350 349 349 352 349 348 347 347 347
334 334 330 328 327 330 332 341 345 345 343 339 350 351 346 339 339 349 349 350 351 352 353 354 355 357 359 356 359 361 359 354 354 354 354 355 353 352 352 352 350 351 350 348 350 349 347 347 347
333 327 329 332 331 331 332 339 338 342 341 343 349 347 346 342 336 343 342 346 346 348 355 356 356 358 357 361 362 353 350 349 347 351 350 350 350 350 348 351 350 351 351 350 349 348 349 347 347
332 329 329 334 334 335 339 343 340 341 343 344 345 346 344 340 339 339 340 343 344 348 350 354 359 357 356 345 337 339 342 340 340 337 339 342 340 343 346 349 350 347 349 348 347 345 347 347 347
334 334 328 328 329 336 342 345 341 343 348 348 347 343 342 342 341 339 340 345 345 344 350 358 357 342 348 350 350 344 344 345 346 346 346 350 349 349 348 346 344 341 342 343 347 346 344 344 346
332 331 334 329 336 351 348 347 342 346 349 350 346 344 340 339 343 347 349 344 337 333 337 348 351 348 350 354 351 348 349 349 348 349 348 346 343 342 344 343 344 345 345 344 339 340 341 342 345
333 331 330 328 334 348 348 346 342 341 343 339 341 339 338 343 350 351 351 346 348 350 344 348 338 344 343 349 348 349 349 349 351 350 349 347 347 346 346 346 346 346 345 346 345 341 341 338 337
330 330 328 331 332 333 340 343 339 338 341 344 343 345 341 348 349 348 352 350 349 348 346 336 337 339 344 344 344 344 343 343 343 342 342 342 344 344 346 347 347 346 345 345 345 346 345 341 339
Wind_Speed
7 7 8 4 3 4 3 5 4 7 6 7 15 2 4 18 2 5 25 21 20 21 20 20 21 21 22 22 24 23 22 21 21 21 20 19 17 15 14 13 14 13 14 14 14 14 14 13 13
2 7 7 2 5 4 4 4 6 13 17 26 20 12 13 6 11 27 25 21 20 20 20 21 20 20 20 21 22 21 19 18 18 19 17 16 14 13 13 13 13 12 13 13 14 14 14 13 15
4 8 2 3 2 3 2 5 17 21 27 10 8 11 6 4 21 15 27 24 19 18 19 20 19 20 20 20 20 18 16 15 15 15 14 13 12 12 12 13 12 11 12 14 14 15 13 13 14
3 3 2 1 4 3 6 9 20 16 17 17 17 10 12 18 11 25 23 22 18 16 18 19 20 20 20 20 18 16 15 14 15 14 14 12 10 10 11 13 12 12 12 12 12 12 12 11 13
2 1 3 2 5 6 8 19 20 14 16 20 18 8 9 15 26 26 24 19 18 17 19 20 19 19 18 17 15 14 13 13 13 12 12 10 8 10 12 13 13 13 13 12 11 10 11 11 11
3 1 5 4 6 5 7 24 27 22 27 24 19 15 7 24 25 22 20 18 18 17 20 21 18 16 15 15 14 13 12 12 11 11 11 9 9 9 10 13 13 12 12 11 10 9 10 11 12
2 3 5 4 5 6 8 25 18 23 19 10 20 8 16 23 21 20 20 17 16 16 19 19 17 15 13 12 11 10 10 10 10 12 10 8 9 8 8 8 11 12 11 11 10 9 10 10 11
6 3 4 1 4 2 7 13 25 22 8 26 27 8 13 29 24 22 22 18 14 15 16 16 15 14 13 11 9 10 11 11 11 11 4 5 7 8 4 5 9 11 11 10 9 8 8 8 8
4 5 4 5 5 4 14 11 18 15 31 5 6 26 35 32 28 26 22 19 17 19 15 14 14 13 11 11 10 10 10 10 11 10 4 3 8 10 8 10 12 13 12 9 8 8 7 6 7
4 4 1 4 6 5 16 24 16 15 23 22 30 28 34 31 28 28 29 24 21 16 17 16 14 12 11 11 9 9 10 10 11 9 4 2 5 11 10 12 12 13 12 10 8 7 7 5 5
6 6 6 11 22 17 15 23 12 27 14 32 31 35 34 30 24 22 25 26 23 17 17 15 15 14 10 10 10 8 8 9 10 10 5 3 5 4 11 12 17 14 13 10 9 9 8 7 6
7 15 11 6 25 18 8 17 10 18 16 29 36 34 34 31 27 20 21 24 25 21 17 16 14 14 12 12 13 15 10 11 10 10 13 10 9 9 6 11 16 18 15 12 12 13 14 12 10
11 8 17 18 28 24 23 17 17 23 26 31 32 33 34 31 24 22 20 21 22 21 20 19 17 14 13 14 4 14 11 14 12 12 11 10 6 6 7 7 12 16 18 16 15 17 17 18 16
12 19 16 19 19 18 17 23 10 24 25 31 29 35 34 31 27 24 24 23 25 24 22 22 21 17 17 18 10 1 8 9 11 11 11 11 8 7 7 9 9 10 11 12 13 15 17 19 18
21 8 9 14 16 8 22 4 12 30 25 28 28 32 33 28 28 27 27 26 25 23 25 23 23 19 18 16 15 11 7 6 7 7 9 10 9 7 7 9 10 12 13 15 14 13 17 20 18
4 6 7 9 14 12 5 6 17 31 29 26 26 28 33 29 27 25 28 25 28 25 24 22 23 20 15 13 12 13 9 8 5 4 6 4 4 5 7 9 9 9 13 15 16 14 17 17 22
6 6 6 5 15 7 3 5 19 31 28 26 26 27 29 34 29 26 26 26 26 26 24 22 22 17 12 12 9 8 8 8 6 6 8 8 7 7 9 9 7 8 13 13 15 15 16 15 15
5 4 5 7 8 9 7 6 19 30 27 25 24 28 28 33 32 26 25 27 25 22 26 20 21 17 15 13 13 11 10 10 9 7 7 7 7 9 10 11 10 11 13 12 15 12 13 13 13
13 6 4 4 10 8 12 8 20 27 24 23 26 32 37 36 26 29 27 27 26 23 26 23 21 20 19 19 18 16 13 9 9 8 9 10 7 7 9 10 9 9 10 10 12 14 14 12 11
11 3 5 8 12 5 8 11 17 20 25 29 29 31 30 29 28 32 32 30 29 22 25 25 21 17 16 17 15 14 10 13 13 12 11 13 12 7 9 8 9 10 10 11 11 13 15 15 13
9 5 8 7 9 6 7 4 10 10 15 21 23 16 22 5 6 6 28 32 27 27 20 23 20 15 15 9 13 15 14 16 13 12 13 12 13 11 11 11 12 10 12 12 12 12 14 14 14
8 7 11 8 7 6 4 4 5 3 6 7 24 28 33 26 28 23 25 31 34 27 19 20 19 17 6 8 10 13 12 15 16 14 14 14 15 13 12 11 14 15 13 15 14 13 15 15 15
11 9 4 3 4 4 5 6 5 3 0 9 21 33 38 33 25 39 34 28 36 30 24 22 22 19 9 7 6 10 12 14 14 14 15 15 12 13 13 13 14 16 15 14 15 15 16 16 16
9 3 7 5 3 3 4 6 3 6 5 4 14 22 31 35 28 37 35 22 30 23 32 27 24 20 16 11 7 8 9 9 9 9 10 10 11 9 11 12 14 15 14 15 14 15 18 19 19
1 7 4 4 5 6 6 4 6 5 8 10 16 24 32 36 30 27 22 18 15 19 23 24 24 18 14 10 10 8 5 5 4 6 6 5 7 12 13 12 11 13 10 12 15 17 19 20 19
8 8 6 5 3 5 3 1 3 7 19 18 23 23 22 14 13 12 10 10 9 9 19 23 24 17 11 7 2 1 2 3 4 7 9 8 8 9 13 13 12 12 12 14 15 16 18 19 17
6 1 6 6 3 4 1 4 6 15 9 13 15 18 11 2 14 19 11 2 16 22 23 30 21 20 14 8 2 4 3 4 5 3 2 5 5 4 7 10 12 11 12 13 14 15 16 16 17
8 5 1 4 2 1 2 2 3 7 9 14 17 24 16 13 21 25 13 7 27 41 44 12 16 14 8 8 7 8 7 8 10 9 9 9 10 10 11 11 11 12 13 15 14 12 12 13 13
3 0 5 6 5 5 4 5 2 4 11 14 20 28 18 7 6 5 23 22 12 15 17 18 17 13 7 9 6 6 6 6 8 10 12 13 11 11 14 15 14 14 14 14 15 15 13 12 10
6 10 6 5 3 3 4 4 2 6 14 26 24 32 27 12 4 12 26 26 20 16 20 14 14 11 8 3 6 10 11 12 14 15 14 15 16 17 16 17 18 19 19 19 18 19 18 16 16
Wind_Direction
89 73 48 29 38 71 22 7 149 126 119 148 138 111 75 55 36 150 137 139 142 136 128 131 132 131 133 134 134 130 125 121 119 118 125 125 124 126 119 122 116 116 124 127 125 117 119 122 122
68 50 36 301 76 72 300 358 89 100 118 112 95 89 41 77 89 127 131 139 145 138 134 134 132 134 133 135 137 136 131 128 127 123 124 121 126 124 122 118 122 122 133 130 130 127 129 125 127
103 64 44 52 106 140 115 356 123 125 146 123 109 55 54 86 113 127 135 138 140 139 140 138 137 134 135 136 140 143 141 138 133 130 125 126 129 129 124 129 132 126 128 128 127 127 129 134 132
63 59 37 301 88 49 131 113 124 116 85 82 108 74 74 118 113 136 136 139 137 140 145 141 138 137 137 137 144 147 145 140 138 136 134 131 137 139 139 138 134 132 132 138 135 133 134 139 141
33 149 38 339 18 91 118 117 102 91 95 108 100 107 89 120 130 131 138 141 138 146 148 143 143 142 146 150 152 158 156 146 144 138 140 131 140 147 147 145 141 134 134 138 140 137 140 148 157
340 111 55 42 43 23 101 113 100 97 109 106 100 105 97 133 137 141 150 151 146 150 154 151 148 149 152 153 155 156 158 155 151 147 131 125 138 158 151 147 145 141 140 142 149 153 146 150 162
173 91 153 110 69 46 85 127 126 131 135 115 129 103 136 149 148 150 152 149 154 165 165 159 155 158 159 159 161 163 159 160 155 154 146 135 128 149 151 165 165 164 160 158 154 156 159 165 170
250 120 104 118 107 63 87 119 148 139 100 133 125 156 163 160 163 160 157 163 164 174 177 171 168 169 169 168 165 168 158 158 162 163 152 201 205 195 202 199 199 179 174 170 169 174 175 182 196
306 81 133 165 127 174 95 85 139 116 133 196 205 152 151 163 167 170 163 167 163 168 182 179 177 180 183 180 180 179 174 173 171 166 142 231 224 211 261 245 215 194 186 186 181 181 188 203 210
133 102 114 133 151 132 122 114 114 110 106 104 119 137 154 159 169 174 172 174 172 168 172 192 193 196 192 189 193 189 193 190 188 188 221 261 240 239 226 217 207 205 195 193 193 198 197 215 233
145 147 186 110 98 127 127 118 126 115 126 143 142 147 158 164 171 185 187 179 173 174 161 167 167 175 176 188 200 205 214 212 207 218 224 320 263 280 230 223 220 215 211 206 214 223 227 243 241
113 150 145 134 102 105 124 135 113 117 156 147 148 158 163 174 175 174 170 179 185 190 178 169 169 172 178 189 193 199 210 220 228 242 248 288 276 249 251 225 220 219 220 233 239 245 246 242 248
123 150 139 140 124 127 123 122 120 118 144 151 155 163 172 176 176 180 180 181 186 192 189 185 192 192 189 191 228 208 209 218 215 242 262 273 267 243 234 210 213 225 235 248 255 255 252 243 241
166 147 134 145 140 139 118 125 107 148 148 161 164 175 179 184 182 183 185 189 194 197 198 195 201 207 207 216 264 280 228 215 227 236 259 259 267 263 243 228 227 224 230 239 251 251 243 247 248
156 120 128 157 147 130 121 74 137 162 160 169 179 187 187 189 186 188 186 194 197 200 195 202 205 207 216 240 251 261 242 238 246 248 256 255 259 266 269 257 261 259 255 253 253 256 254 251 251
137 93 142 209 154 184 93 203 161 169 168 183 189 186 193 189 199 190 194 186 196 198 200 202 206 212 227 239 258 247 236 236 246 242 245 249 256 264 276 271 263 258 256 255 254 254 256 258 247
359 165 195 190 204 154 165 140 174 176 178 189 190 197 196 193 200 199 200 194 197 201 201 207 210 218 229 235 239 239 243 247 252 259 264 265 266 269 276 277 271 264 262 253 253 246 253 252 248
262 224 179 190 216 177 188 183 171 183 182 198 182 179 183 187 198 192 197 201 198 204 211 208 215 226 231 239 243 244 244 242 238 260 269 258 262 263 271 276 262 268 271 260 251 261 249 258 250
276 245 246 213 186 153 194 158 177 184 188 191 179 176 174 182 188 189 195 194 195 209 211 211 209 218 228 230 235 241 259 263 255 261 276 275 268 266 268 273 283 260 267 267 255 253 255 246 251
270 155 265 288 182 131 175 200 179 186 194 189 182 184 181 184 187 191 194 197 205 207 212 216 213 210 219 237 247 254 269 270 280 283 281 284 286 290 294 289 289 271 265 249 256 251 249 256 252
278 187 232 210 163 200 125 9 189 205 209 192 183 143 120 199 181 199 203 209 215 213 211 210 214 216 235 238 241 248 257 273 287 297 298 290 294 297 292 282 283 283 271 262 251 254 256 258 255
268 221 201 230 126 203 176 220 213 349 261 137 158 138 150 178 210 198 225 218 215 223 223 221 217 220 245 248 250 258 277 284 296 299 295 296 297 300 289 292 282 281 279 272 263 253 254 252 246
251 249 305 153 173 57 356 77 267 57 232 146 148 156 171 192 186 194 207 227 215 222 225 223 220 224 242 266 250 259 269 287 304 301 299 288 298 294 307 293 283 285 283 281 273 266 252 247 249
277 256 37 56 88 31 269 128 265 170 146 307 159 161 185 200 202 194 202 213 215 214 233 224 220 222 227 243 247 247 262 268 286 303 303 298 295 290 299 297 287 299 288 281 281 274 262 258 259
42 63 4 1 11 229 226 83 207 246 99 162 161 187 195 211 201 192 231 238 216 211 213 207 212 206 220 230 227 235 253 274 302 301 319 299 301 304 302 299 296 300 308 295 286 280 275 269 265
229 147 152 194 205 265 32 49 279 68 86 131 160 176 196 220 244 314 308 266 251 221 228 207 187 191 206 180 123 37 2 342 350 341 332 330 341 327 313 317 316 311 308 307 297 289 287 278 266
251 146 191 119 133 74 250 330 311 68 60 56 107 90 83 168 270 328 306 219 211 256 232 195 168 135 103 80 70 32 1 12 3 357 347 308 324 336 339 333 334 329 322 317 310 297 294 289 276
166 170 84 7 115 95 350 146 236 72 90 83 91 92 95 31 269 291 167 200 204 220 236 114 116 94 145 206 210 231 255 237 261 267 270 277 283 286 287 292 291 302 311 316 312 314 315 304 290
269 313 66 119 123 154 152 250 244 166 143 130 118 123 121 135 267 209 151 162 175 199 154 131 137 168 195 198 173 226 240 251 254 264 267 271 278 277 273 277 275 282 288 292 300 298 303 307 317
228 195 160 140 237 79 125 258 166 243 156 137 119 122 115 138 198 140 148 155 167 167 158 171 162 206 195 215 283 289 290 286 288 290 293 291 289 290 285 279 276 279 280 283 286 287 290 292 294